Showing default

HAWK-11B, 62379

Orbit data source: Space-Track

HAWK-11B, 62379 is a payload satellite owned by HawkEye 360 (US) in LEO that was launched on Sat, 21 Dec 2024 UTC via an FALCON 9 launch vehicle from the Air Force Western Test Range (AFWTR). Payload-class satellites include a variety of spacecraft equipped with specific instruments for various scientific and technological missions. These include communications satellites like Starlink; space stations such as the ISS; scientific satellites like the Hubble; Earth observation satellites from companies like Planet Labs, Umbra, and HawkEye 360; GPS; miniature CubeSats for education and research; and military/defense satellites.

Loading next visibility...
Identifier
62379, 2024-247C
Orbit
LEO
Last TLE update
16 hours ago
Origin
Manufacturer
UTIAS-SFL
Mission
Operational Commercial Sigint
Bus & Motor
HAWK2G, Unknown motor
Mass
31 kg wet, 30 kg dry
Launch date (UTC)
2024-12-21 (5 months ago)
Launch vehicle
FALCON 9
Launch site
Air Force Western Test Range (AFWTR)
Object type
Payload
Rocket body
Debris
Shape & HBR
Box + 2 Pan, 1 m
Radar Cross Section
0.240 m², Medium (>0.1 m² and < 1m²)

Expand to show TLE details & history

TLE from 16 hours ago
0 HAWK-11B
1 62379U 24247C   25128.93613695  .00009976  00000-0  42766-3 0  9995
2 62379  45.0102 333.1207 0002990 253.6781 106.3772 15.23015729 21220
Epoch: 2025-05-08T22:28Z
Definitive object data (Epoch: 2025-05-08T22:28:02.232Z)
Latitude
Longitude
129.11192°
Altitude
497.33 km
Speed
7.617 km/s
True Right ascension
22h 12m 28s
True Declination
0° 00' 00"
Sunlit
Object was in daylight at TLE epoch
Visualization TLE readout
Latitude
36.13986°
Longitude
172.05123°
Altitude
500.528 km
Speed
7.618 km/s
Apparent Right ascension
05h 07m 36s
Apparent Declination
0° 35' 48"
Sunlit
Object is in daylight
Visualization observer readout
Local Sidereal Time
22:37:25
Azimuth
85.601° E
Elevation
-6.164°
Doppler factor
1
Orbital elements
Apogee altitude
500.411 km
Perigee altitude
496.299 km
Semi-major axis
6,876.492 km
Eccentricity
0.000299
Inclination
45.0102°
RAAN
333.1207°
Arg. of periapsis
253.6781°
True anomaly
106.41007°
Mean anomaly
106.3772°
Eccentric anomaly
106.39363°
Mean motion
3.80621 °/min
BSTAR
0.00042766
Orbital period
94.58 mins
Loading maneuver chart data...
Loading SW <> Apogee altitude chart data...
Loading historical data...
Loading historical data...
Loading historical data...
Loading historical data...
Loading historical data...
Loading historical data...
Loading historical data...

HAWK-11B Visibility forecast

Observer location: undefined°, undefined°

Span
Click to sort rows by Start time (UTC) header in descending order
Start Az.
Max El. time (UTC)
Max El. Az.
Max El.
End time (UTC)
End Az.
5 mins2025-05-09 15:57:16.216Z190.657° SSW2025-05-09 16:00:16.216Z136.609° SSE20.01°2025-05-09 16:02:16.216Z99.113° ESE
6 mins2025-05-09 17:36:16.216Z250.447° W2025-05-09 17:39:16.216Z46.074° ENE42.876°2025-05-09 17:42:16.216Z65.127° ENE
5 mins2025-05-09 19:16:16.216Z299.807° NW2025-05-09 19:18:16.216Z356.527° N31.779°2025-05-09 19:21:16.216Z61.803° ENE
6 mins2025-05-09 20:55:16.216Z304.14° NW2025-05-09 20:58:16.216Z41.29° NE35.858°2025-05-09 21:01:16.216Z89.861° E
6 mins2025-05-09 22:34:16.216Z279.728° WNW2025-05-09 22:37:16.216Z191.588° SSW35.357°2025-05-09 22:40:16.216Z138.455° SSE
|